一网星座-0383星 (ONEWEB-0383 )

导读

ONEWEB-0383是英国OneWeb公司的低轨宽带卫星,于2021年10月14日发射,是OneWeb全球卫星互联网星座的组成部分。 OneWeb星座计划通过数百颗低轨卫星组网,为全球偏远地区、基础设施薄弱区域提供 affordable的高速互联网接入服务。该卫星运行在近地轨道,助力OneWeb完成全球网络覆盖布局,推动全球互联基础设施建设,目前已成为全球低轨卫星互联网服务的重要节点。

Basic Information
目录编号:
49309
目录名称:
ONEWEB-0383
国际标识:
2021-090AG
轨道中心:
EARTH
卫星名称:
一网星座-0383星
卫星全名:
一网星座-0383星 (ONEWEB-0383 )
卫星状态:
在轨 (已飞行1704 天)
发射日期:
2021-10-14 UTC
国别 :
英国 (GB)
星等 :
--
Orbit Information
数据来源 国际轨道数据 AOE轨道数据
星历时间 2026-06-14T16:49:01+0800
7小时前
查看轨道信息
2026-06-13T06:00:00+0800
1天前
查看轨道信息
半长轴 7583.934km 7583.942km
偏心率 0.0001861 0.0001171
轨道倾角 87.897° 87.900°
近地点辐角 95.246° 48.239°
升交点赤经 290.261° 290.552°
平近点角 264.888° 290.769°
近地点 1204.385km 1204.916km
远地点 1207.209km 1206.694km
周期 109.547分钟 109.547分钟
每日圈数 13.145012 13.14499
Detailed Information
平衡模式:
三轴稳定
覆盖范围:
全球
运营商:
一网卫星公司
运营商所在国:
英国
制造商(研发单位):
一网卫星公司
制造商所在国:
英国
使用方式:
暂无
Satellite Introduction
OneWeb卫星网络由648颗重约125公斤的微型卫星组成,运行在1200公里的轨道上。 每颗卫星都能够提供至少每秒8千兆位的吞吐量,以使用其高吞吐量的Ku频段有效载荷为家庭和移动平台提供互联网接入。该卫星仍在工作。
2D Orbit Map
3D Orbit Map
Orbit Altitude Analysis Chart
Orbit Inclination Analysis Chart
Orbit Comprehensive Analysis Chart
View Comprehensive Chart